Location: Ceske Budejovice
(48.9830°N, 14.4670°E)
Time: 10:10:23
(UTC+02:00)

ISS - Pass Details

Date: 24 April 2024
Orbit: 409 x 414 km, 51.6° (Epoch: 21 May)

Event Time Altitude Azimuth Distance (km) Brightness Sun altitude
Exits shadow 03:53:25 12° 149° (SSE) 1,385 -1.3 -17.2°
Maximum altitude 03:54:08 12° 135° (SE) 1,350 -1.2 -17.1°
Drops below altitude 10° 03:55:31 10° 111° (ESE) 1,475 -0.7 -17.0°
Sets 03:58:37 0° 79° (E) 2,340 1.0 -16.6°
